TimeCDT,TemperatureF,Dew PointF,Humidity,Sea Level PressureIn,VisibilityMPH,Wind Direction,Wind SpeedMPH,Gust SpeedMPH,PrecipitationIn,Events,Conditions,WindDirDegrees,DateUTC
12:52 AM,30.0,21.9,72,30.68,10.0,Calm,Calm,-,N/A,,Clear,0,2013-05-02 05:52:00
1:52 AM,28.9,21.9,75,30.68,10.0,Calm,Calm,-,N/A,,Clear,0,2013-05-02 06:52:00
2:52 AM,30.0,21.0,69,30.68,10.0,Calm,Calm,-,N/A,,Clear,0,2013-05-02 07:52:00
3:52 AM,24.1,19.9,84,30.68,10.0,Calm,Calm,-,N/A,,Clear,0,2013-05-02 08:52:00
4:52 AM,26.1,21.0,81,30.70,10.0,Calm,Calm,-,N/A,,Clear,0,2013-05-02 09:52:00
5:52 AM,23.0,19.0,85,30.71,10.0,Calm,Calm,-,N/A,,Clear,0,2013-05-02 10:52:00
6:52 AM,24.1,19.0,81,30.73,10.0,Calm,Calm,-,N/A,,Clear,0,2013-05-02 11:52:00
7:52 AM,30.2,23.0,75,30.68,10.0,Calm,Calm,-,N/A,,Scattered Clouds,0,2013-05-02 12:52:00
8:52 AM,36.0,26.1,67,30.74,10.0,Calm,Calm,-,N/A,,Mostly Cloudy,0,2013-05-02 13:52:00
9:52 AM,42.1,23.0,47,30.74,10.0,Calm,Calm,-,N/A,,Clear,0,2013-05-02 14:52:00
10:52 AM,45.0,21.0,39,30.72,10.0,West,3.5,-,N/A,,Partly Cloudy,280,2013-05-02 15:52:00
11:52 AM,46.0,21.9,39,30.69,10.0,ENE,4.6,-,N/A,,Clear,60,2013-05-02 16:52:00
12:52 PM,50.0,21.0,32,30.67,10.0,Variable,5.8,-,N/A,,Clear,0,2013-05-02 17:52:00
1:52 PM,51.1,19.9,29,30.64,10.0,Calm,Calm,-,N/A,,Partly Cloudy,0,2013-05-02 18:52:00
2:52 PM,51.1,19.0,28,30.61,10.0,North,-9999.0,-,N/A,,Overcast,0,2013-05-02 19:52:00
3:52 PM,52.0,21.0,30,30.59,10.0,Variable,4.6,-,N/A,,Overcast,0,2013-05-02 20:52:00
4:52 PM,52.0,19.9,28,30.56,10.0,Variable,3.5,-,N/A,,Overcast,0,2013-05-02 21:52:00
5:52 PM,53.1,19.9,27,30.54,10.0,ENE,8.1,-,N/A,,Overcast,70,2013-05-02 22:52:00
6:52 PM,52.0,19.9,28,30.54,10.0,ENE,11.5,-,N/A,,Overcast,70,2013-05-02 23:52:00
7:52 PM,50.0,19.9,31,30.53,10.0,East,12.7,-,N/A,,Clear,80,2013-05-03 00:52:00
8:52 PM,44.1,23.0,43,30.54,10.0,East,11.5,-,N/A,,Clear,100,2013-05-03 01:52:00
9:52 PM,39.9,23.0,51,30.54,10.0,East,12.7,-,N/A,,Clear,90,2013-05-03 02:52:00
10:52 PM,37.0,24.1,59,30.54,10.0,East,11.5,-,N/A,,Clear,80,2013-05-03 03:52:00
11:52 PM,33.1,23.0,66,30.53,10.0,East,6.9,-,N/A,,Clear,80,2013-05-03 04:52:00